This is the latest recevied weather packets stored in our database for station/object N2XP-2. If no packets are shown the sender has not sent any weather packets the latest 10 day(s).
| Time | Temp. | Humidity | Pressure | Rain* | Wind** | Luminosity | Snow |
|---|---|---|---|---|---|---|---|
| 1778056497 | 16.67° C | 87% | 1010.9 hPa | 0 mm | 0.89 m/s, 233° | - | - |
| 1778056197 | 16.67° C | 87% | 1010.9 hPa | 0 mm | 1.79 m/s, 276° | - | - |
| 1778055894 | 16.67° C | 87% | 1010.9 hPa | 0 mm | 1.34 m/s, 194° | - | - |
| 1778055595 | 16.67° C | 87% | 1010.9 hPa | 0 mm | 1.34 m/s, 309° | - | - |
| 1778055504 | 17.22° C | 86% | 1011 hPa | 0 mm | 1.34 m/s, 203° | - | - |
| 1778055493 | 17.22° C | 86% | 1011 hPa | 0 mm | 1.34 m/s, 287° | - | - |
| 1778055296 | 16.67° C | 87% | 1010.9 hPa | 0 mm | 2.24 m/s, 181° | - | - |
| 1778054993 | 17.22° C | 87% | 1011 hPa | 0 mm | 1.79 m/s, 218° | - | - |
| 1778054694 | 17.22° C | 86% | 1011 hPa | 0 mm | 2.24 m/s, 193° | - | - |
| 1778054480 | 17.22° C | 86% | 1011 hPa | 0 mm | 1.34 m/s, 203° | - | - |
| 1778054395 | 17.22° C | 86% | 1011 hPa | 0 mm | 1.34 m/s, 203° | - | - |
| 1778054092 | 17.22° C | 86% | 1011 hPa | 0 mm | 1.79 m/s, 212° | - | - |
| 1778053793 | 17.22° C | 86% | 1011 hPa | 0 mm | 1.34 m/s, 287° | - | - |
| 1778053585 | 17.22° C | 85% | 1011.2 hPa | 0 mm | 1.34 m/s, 252° | - | - |
| 1778053579 | 17.22° C | 85% | 1011.2 hPa | 0 mm | 1.34 m/s, 170° | - | - |
| 1778053567 | 17.22° C | 85% | 1011.3 hPa | 0 mm | 1.79 m/s, 226° | - | - |
| 1778053494 | 17.22° C | 86% | 1010.9 hPa | 0 mm | 1.79 m/s, 215° | - | - |
| 1778053191 | 17.22° C | 86% | 1011 hPa | 0 mm | 1.79 m/s, 162° | - | - |
| 1778052892 | 17.22° C | 85% | 1011.2 hPa | 0 mm | 1.34 m/s, 205° | - | - |
| 1778052593 | 17.22° C | 85% | 1011.2 hPa | 0 mm | 1.34 m/s, 252° | - | - |
| 1778052290 | 17.22° C | 85% | 1011.2 hPa | 0 mm | 1.34 m/s, 170° | - | - |
| 1778051991 | 17.22° C | 85% | 1011.3 hPa | 0 mm | 1.79 m/s, 263° | - | - |
| 1778051692 | 17.22° C | 85% | 1011.3 hPa | 0 mm | 1.79 m/s, 226° | - | - |
| 1778051389 | 17.22° C | 84% | 1011.3 hPa | 0 mm | 1.79 m/s, 287° | - | - |
| 1778051090 | 17.22° C | 84% | 1011.3 hPa | 0 mm | 1.34 m/s, 236° | - | - |
* Rain latest hour (hover to see other rain measurements)
** Current wind speed in m/s (hover to see current wind gust speed)